Location: Newark
(45.2500°N, 7.5833°E)
Time: 15:40:13
(UTC+00:00)

Tiros 1 despin weight - Pass Details

Date: 01 February 2020
Orbit: 594 x 642 km, 48.2° (Epoch: 24 February)

Event Time Altitude Azimuth Distance (km) Brightness Sun altitude
Rises 06:30:54 0° 184° (S) 2,818 ? -4.1°
Reaches altitude 10° 06:34:48 10° 150° (SSE) 1,930 ? -3.4°
Maximum altitude 06:36:06 11° 132° (SE) 1,858 ? -3.2°
Drops below altitude 10° 06:37:25 10° 115° (ESE) 1,940 ? -3.0°
Sets 06:41:21 0° 81° (E) 2,861 ? -2.4°
